Location: Carri�res
(48.9069°N, 2.1792°E)
Time: 13:50:39
(UTC+00:00)

OPS 8737 - Pass Details

Date: 17 January 2021
Orbit: 354 x 1719 km, 63.3° (Epoch: 10 February)

Event Time Altitude Azimuth Distance (km) Brightness Sun altitude
Rises 18:14:40 0° 319° (NW) 2,238 8.3 -17.5°
Reaches altitude 10° 18:16:30 10° 322° (NW) 1,444 7.3 -17.8°
Maximum altitude 18:19:35 71° 47° (NE) 483 4.3 -18.3°
Enters shadow 18:20:29 46° 116° (ESE) 642 4.8 -18.4°
